| time (UTC) | temp F | wind direction | speed MPH | gust MPH | rain 1hr in | rain 24hr in | rain mn in | humidity % | barometer mb |
| 20260508215103 | 58 | 305 | 3.0 | 6.0 | 0.00 | 0.16 | 0.05 | 49 | 1009.3 |
| 20260508214102 | 58 | 270 | 5.0 | 10.0 | 0.00 | 0.16 | 0.05 | 52 | 1009.3 |
| 20260508213602 | 58 | 333 | 3.0 | 10.0 | 0.00 | 0.16 | 0.05 | 50 | 1009.3 |
| 20260508212603 | 58 | 301 | 4.0 | 8.0 | 0.00 | 0.16 | 0.05 | 54 | 1009.3 |
| 20260508212103 | 57 | 310 | 3.0 | 8.0 | 0.00 | 0.16 | 0.05 | 52 | 1009.3 |
| 20260508211605 | 58 | 334 | 4.0 | 8.0 | 0.00 | 0.16 | 0.05 | 49 | 1009.3 |
| 20260508211102 | 58 | 294 | 3.0 | 5.0 | 0.00 | 0.16 | 0.05 | 51 | 1009.3 |
| 20260508210603 | 58 | 241 | 4.0 | 8.0 | 0.00 | 0.16 | 0.05 | 51 | 1009.4 |
| 20260508205602 | 57 | 235 | 3.0 | 6.0 | 0.00 | 0.16 | 0.05 | 55 | 1009.3 |
| 20260508205103 | 57 | 229 | 3.0 | 6.0 | 0.00 | 0.16 | 0.05 | 56 | 1009.4 |
| 20260508204603 | 57 | 224 | 3.0 | 9.0 | 0.00 | 0.16 | 0.05 | 58 | 1009.4 |
| 20260508204103 | 56 | 265 | 2.0 | 5.0 | 0.00 | 0.16 | 0.05 | 54 | 1009.5 |
| 20260508203603 | 57 | 265 | 2.0 | 8.0 | 0.00 | 0.16 | 0.05 | 54 | 1009.5 |
| 20260508203102 | 58 | 236 | 3.0 | 8.0 | 0.00 | 0.16 | 0.05 | 53 | 1009.5 |
| 20260508202603 | 58 | 275 | 3.0 | 8.0 | 0.00 | 0.16 | 0.05 | 53 | 1009.6 |
| 20260508202103 | 58 | 289 | 6.0 | 10.0 | 0.00 | 0.16 | 0.05 | 57 | 1009.7 |
| 20260508201603 | 58 | 294 | 5.0 | 10.0 | 0.00 | 0.16 | 0.05 | 59 | 1009.8 |
| 20260508201104 | 56 | 292 | 2.0 | 8.0 | 0.00 | 0.16 | 0.05 | 58 | 1009.7 |
| 20260508200603 | 56 | 302 | 3.0 | 7.0 | 0.00 | 0.16 | 0.05 | 61 | 1009.8 |
| 20260508195603 | 57 | 259 | 2.0 | 8.0 | 0.00 | 0.16 | 0.05 | 59 | 1009.8 |
| 20260508195103 | 56 | 205 | 2.0 | 9.0 | 0.00 | 0.16 | 0.05 | 58 | 1009.9 |
| 20260508194604 | 56 | 283 | 2.0 | 3.0 | 0.00 | 0.16 | 0.05 | 57 | 1010.0 |
| 20260508193603 | 57 | 274 | 2.0 | 5.0 | 0.00 | 0.16 | 0.05 | 58 | 1010.1 |
| 20260508193102 | 57 | 208 | 1.0 | 9.0 | 0.00 | 0.16 | 0.05 | 55 | 1010.1 |
| 20260508192603 | 58 | 269 | 3.0 | 7.0 | 0.00 | 0.16 | 0.05 | 52 | 1010.2 |
| 20260508192103 | 58 | 277 | 2.0 | 5.0 | 0.00 | 0.16 | 0.05 | 53 | 1010.2 |
| 20260508191603 | 58 | 263 | 1.0 | 6.0 | 0.00 | 0.16 | 0.05 | 48 | 1010.2 |
| 20260508191102 | 57 | 250 | 2.0 | 5.0 | 0.00 | 0.16 | 0.05 | 53 | 1010.3 |
| 20260508190603 | 57 | 269 | 4.0 | 9.0 | 0.00 | 0.16 | 0.05 | 51 | 1010.4 |
| 20260508190103 | 58 | 288 | 3.0 | 8.0 | 0.00 | 0.16 | 0.05 | 56 | 1010.4 |
| 20260508185602 | 57 | 296 | 3.0 | 9.0 | 0.00 | 0.16 | 0.05 | 56 | 1010.5 |
| 20260508185103 | 57 | 305 | 4.0 | 7.0 | 0.00 | 0.16 | 0.05 | 50 | 1010.5 |
| 20260508184603 | 58 | 340 | 2.0 | 10.0 | 0.00 | 0.16 | 0.05 | 50 | 1010.5 |
| 20260508184103 | 58 | 316 | 3.0 | 6.0 | 0.00 | 0.16 | 0.05 | 58 | 1010.6 |
| 20260508183103 | 58 | 42 | 4.0 | 10.0 | 0.00 | 0.16 | 0.05 | 51 | 1010.7 |
| 20260508182603 | 56 | 267 | 1.0 | 3.0 | 0.00 | 0.16 | 0.05 | 53 | 1010.6 |
| 20260508182103 | 56 | 4 | 3.0 | 7.0 | 0.00 | 0.16 | 0.05 | 52 | 1010.7 |
| 20260508181603 | 55 | 323 | 4.0 | 7.0 | 0.00 | 0.16 | 0.05 | 57 | 1010.8 |
| 20260508181103 | 56 | 298 | 5.0 | 10.0 | 0.00 | 0.16 | 0.05 | 54 | 1010.8 |
| 20260508180603 | 56 | 265 | 3.0 | 10.0 | 0.00 | 0.16 | 0.05 | 53 | 1010.8 |
| 20260508180103 | 55 | 351 | 6.0 | 12.0 | 0.00 | 0.16 | 0.05 | 55 | 1010.9 |
| 20260508175603 | 54 | 206 | 3.0 | 6.0 | 0.00 | 0.16 | 0.05 | 47 | 1010.9 |
| 20260508175102 | 56 | 341 | 6.0 | 9.0 | 0.00 | 0.16 | 0.05 | 48 | 1011.0 |
| 20260508174603 | 56 | 323 | 7.0 | 12.0 | 0.00 | 0.16 | 0.05 | 56 | 1011.0 |
| 20260508174103 | 56 | 350 | 6.0 | 12.0 | 0.00 | 0.16 | 0.05 | 51 | 1011.0 |
| 20260508173603 | 54 | 337 | 2.0 | 6.0 | 0.00 | 0.16 | 0.05 | 58 | 1011.0 |
| 20260508173104 | 55 | 293 | 5.0 | 12.0 | 0.00 | 0.16 | 0.05 | 50 | 1011.1 |
| 20260508172603 | 55 | 298 | 5.0 | 12.0 | 0.00 | 0.16 | 0.05 | 53 | 1011.1 |
| 20260508172102 | 55 | 347 | 3.0 | 7.0 | 0.00 | 0.16 | 0.05 | 58 | 1011.1 |
| 20260508171103 | 54 | 307 | 5.0 | 10.0 | 0.00 | 0.16 | 0.05 | 55 | 1011.2 |
| 20260508170603 | 55 | 8 | 5.0 | 12.0 | 0.00 | 0.16 | 0.05 | 62 | 1011.3 |
| 20260508170103 | 55 | 342 | 6.0 | 15.0 | 0.00 | 0.16 | 0.05 | 59 | 1011.3 |
| 20260508165602 | 55 | 336 | 5.0 | 15.0 | 0.00 | 0.16 | 0.05 | 56 | 1011.2 |
| 20260508164103 | 53 | 276 | 3.0 | 12.0 | 0.00 | 0.16 | 0.05 | 63 | 1011.4 |
| 20260508163603 | 53 | 315 | 6.0 | 10.0 | 0.00 | 0.16 | 0.05 | 62 | 1011.5 |
| 20260508163103 | 53 | 298 | 6.0 | 12.0 | 0.00 | 0.16 | 0.05 | 68 | 1011.5 |
| 20260508162603 | 52 | 237 | 3.0 | 10.0 | 0.00 | 0.16 | 0.05 | 66 | 1011.5 |
| 20260508162103 | 54 | 314 | 5.0 | 12.0 | 0.00 | 0.16 | 0.05 | 68 | 1011.6 |
| 20260508161603 | 53 | 308 | 3.0 | 8.0 | 0.00 | 0.16 | 0.05 | 69 | 1011.6 |
| 20260508161103 | 52 | 352 | 6.0 | 15.0 | 0.00 | 0.16 | 0.05 | 65 | 1011.7 |
| 20260508160603 | 52 | 283 | 2.0 | 8.0 | 0.00 | 0.16 | 0.05 | 69 | 1011.8 |
| 20260508160103 | 52 | 245 | 3.0 | 8.0 | 0.00 | 0.16 | 0.05 | 69 | 1011.7 |
| 20260508155602 | 51 | 301 | 5.0 | 10.0 | 0.00 | 0.16 | 0.05 | 73 | 1011.7 |
| 20260508155103 | 52 | 294 | 5.0 | 9.0 | 0.00 | 0.16 | 0.05 | 73 | 1011.8 |
| 20260508154603 | 51 | 15 | 5.0 | 12.0 | 0.00 | 0.16 | 0.05 | 71 | 1011.9 |
| 20260508154103 | 51 | 283 | 4.0 | 9.0 | 0.00 | 0.16 | 0.05 | 74 | 1012.0 |
| 20260508152603 | 50 | 302 | 3.0 | 10.0 | 0.00 | 0.16 | 0.05 | 76 | 1012.1 |
| 20260508152103 | 51 | 271 | 3.0 | 8.0 | 0.00 | 0.16 | 0.05 | 75 | 1012.0 |
| 20260508151103 | 50 | 287 | 4.0 | 12.0 | 0.00 | 0.16 | 0.05 | 81 | 1012.1 |
| 20260508150603 | 49 | 249 | 3.0 | 9.0 | 0.00 | 0.16 | 0.05 | 81 | 1012.0 |
| 20260508145103 | 49 | 315 | 3.0 | 7.0 | 0.00 | 0.16 | 0.05 | 83 | 1011.9 |
| 20260508144102 | 48 | 242 | 3.0 | 8.0 | 0.00 | 0.16 | 0.05 | 81 | 1011.9 |
| 20260508143603 | 48 | 258 | 1.0 | 3.0 | 0.00 | 0.16 | 0.05 | 80 | 1012.0 |
| 20260508142104 | 47 | 244 | 1.0 | 5.0 | 0.00 | 0.16 | 0.05 | 83 | 1011.9 |
| 20260508141103 | 48 | 240 | 3.0 | 6.0 | 0.00 | 0.16 | 0.05 | 81 | 1011.9 |
| 20260508140604 | 49 | 253 | 3.0 | 8.0 | 0.00 | 0.16 | 0.05 | 82 | 1011.9 |
| 20260508135603 | 48 | 254 | 2.0 | 5.0 | 0.00 | 0.16 | 0.05 | 85 | 1011.9 |
| 20260508135103 | 47 | 207 | 2.0 | 3.0 | 0.00 | 0.16 | 0.05 | 87 | 1011.8 |
| 20260508134603 | 47 | 202 | 2.0 | 7.0 | 0.00 | 0.16 | 0.05 | 89 | 1012.0 |
| 20260508134103 | 47 | 348 | 1.0 | 5.0 | 0.00 | 0.16 | 0.05 | 91 | 1012.0 |
| 20260508133603 | 45 | 1 | 1.0 | 5.0 | 0.00 | 0.16 | 0.05 | 90 | 1012.0 |
| 20260508133103 | 46 | 243 | 2.0 | 3.0 | 0.00 | 0.16 | 0.05 | 94 | 1012.0 |
| 20260508132603 | 44 | 201 | 1.0 | 3.0 | 0.00 | 0.16 | 0.05 | 94 | 1012.0 |
| 20260508132103 | 43 | 260 | 2.0 | 3.0 | 0.00 | 0.16 | 0.05 | 93 | 1012.1 |
| 20260508131603 | 43 | 230 | 2.0 | 3.0 | 0.00 | 0.16 | 0.05 | 93 | 1012.2 |
| 20260508130604 | 43 | 245 | 2.0 | 3.0 | 0.01 | 0.16 | 0.05 | 94 | 1012.1 |
| 20260508130103 | 43 | 235 | 1.0 | 3.0 | 0.01 | 0.16 | 0.05 | 94 | 1012.1 |
| 20260508125603 | 43 | 254 | 2.0 | 3.0 | 0.01 | 0.16 | 0.05 | 94 | 1012.1 |
| 20260508125104 | 43 | 290 | 1.0 | 2.0 | 0.01 | 0.16 | 0.05 | 95 | 1012.1 |
| 20260508124603 | 43 | 262 | 2.0 | 3.0 | 0.01 | 0.16 | 0.05 | 95 | 1011.9 |
| 20260508124103 | 42 | 245 | 2.0 | 3.0 | 0.01 | 0.16 | 0.05 | 95 | 1011.8 |
| 20260508123603 | 42 | 198 | 2.0 | 3.0 | 0.01 | 0.16 | 0.05 | 95 | 1011.7 |
| 20260508123103 | 42 | 245 | 1.0 | 2.0 | 0.02 | 0.16 | 0.05 | 95 | 1011.8 |
| 20260508122603 | 41 | 245 | 1.0 | 2.0 | 0.02 | 0.16 | 0.05 | 95 | 1011.8 |
| 20260508122103 | 41 | 281 | 0.0 | 2.0 | 0.03 | 0.16 | 0.05 | 95 | 1011.9 |
| 20260508121603 | 41 | 281 | 0.0 | 0.0 | 0.03 | 0.16 | 0.05 | 95 | 1012.0 |
| 20260508121103 | 40 | 281 | 0.0 | 0.0 | 0.04 | 0.16 | 0.05 | 94 | 1012.0 |
| 20260508120603 | 40 | 281 | 0.0 | 2.0 | 0.03 | 0.15 | 0.04 | 94 | 1011.9 |
| 20260508115603 | 40 | 309 | 1.0 | 2.0 | 0.04 | 0.15 | 0.04 | 95 | 1012.0 |
| 20260508113104 | 40 | 331 | 3.0 | 6.0 | 0.03 | 0.14 | 0.03 | 95 | 1012.0 |
| 20260508112604 | 40 | 330 | 7.0 | 12.0 | 0.03 | 0.14 | 0.03 | 95 | 1011.9 |
| 20260508112103 | 41 | 302 | 3.0 | 8.0 | 0.02 | 0.13 | 0.02 | 95 | 1011.8 |
| 20260508111604 | 41 | 327 | 2.0 | 7.0 | 0.02 | 0.13 | 0.02 | 95 | 1011.7 |
| 20260508111103 | 41 | 313 | 2.0 | 5.0 | 0.01 | 0.12 | 0.01 | 95 | 1011.6 |
| 20260508110603 | 41 | 324 | 3.0 | 9.0 | 0.01 | 0.12 | 0.01 | 96 | 1011.6 |
| 20260508105603 | 41 | 328 | 2.0 | 8.0 | 0.00 | 0.11 | 0.00 | 96 | 1011.3 |
| 20260508105103 | 41 | 297 | 3.0 | 7.0 | 0.00 | 0.11 | 0.00 | 96 | 1011.1 |
| 20260508104603 | 41 | 301 | 1.0 | 3.0 | 0.00 | 0.11 | 0.00 | 96 | 1011.0 |
| 20260508104103 | 41 | 294 | 2.0 | 3.0 | 0.00 | 0.11 | 0.00 | 96 | 1010.8 |
| 20260508103603 | 41 | 307 | 1.0 | 3.0 | 0.00 | 0.11 | 0.00 | 96 | 1010.8 |
| 20260508103103 | 41 | 258 | 1.0 | 2.0 | 0.00 | 0.11 | 0.00 | 96 | 1010.6 |
| 20260508102602 | 41 | 287 | 1.0 | 3.0 | 0.00 | 0.11 | 0.00 | 96 | 1010.6 |
| 20260508102103 | 41 | 259 | 1.0 | 3.0 | 0.00 | 0.11 | 0.00 | 96 | 1010.7 |
| 20260508101604 | 41 | 289 | 2.0 | 5.0 | 0.00 | 0.11 | 0.00 | 96 | 1010.6 |
| 20260508101103 | 41 | 289 | 2.0 | 7.0 | 0.00 | 0.11 | 0.00 | 96 | 1010.6 |
| 20260508095603 | 41 | 271 | 1.0 | 3.0 | 0.00 | 0.11 | 0.00 | 97 | 1010.6 |
| 20260508095103 | 41 | 244 | 0.0 | 3.0 | 0.00 | 0.11 | 0.00 | 96 | 1010.5 |
| 20260508094103 | 41 | 217 | 0.0 | 2.0 | 0.00 | 0.11 | 0.00 | 96 | 1010.5 |
| 20260508093603 | 41 | 280 | 0.0 | 0.0 | 0.00 | 0.11 | 0.00 | 96 | 1010.4 |
| 20260508092602 | 41 | 286 | 1.0 | 3.0 | 0.00 | 0.11 | 0.00 | 96 | 1010.6 |
| 20260508092103 | 41 | 301 | 1.0 | 3.0 | 0.00 | 0.11 | 0.00 | 96 | 1010.7 |
| 20260508091603 | 41 | 300 | 2.0 | 3.0 | 0.00 | 0.11 | 0.00 | 96 | 1010.8 |
| 20260508091103 | 41 | 317 | 2.0 | 3.0 | 0.00 | 0.11 | 0.00 | 96 | 1010.7 |
| 20260508090603 | 41 | 280 | 1.0 | 2.0 | 0.00 | 0.11 | 0.00 | 96 | 1010.7 |
| 20260508085603 | 41 | 261 | 2.0 | 7.0 | 0.00 | 0.11 | 0.00 | 96 | 1010.6 |
| 20260508085103 | 41 | 268 | 2.0 | 3.0 | 0.00 | 0.11 | 0.00 | 96 | 1010.8 |
| 20260508084603 | 41 | 267 | 2.0 | 3.0 | 0.00 | 0.11 | 0.00 | 97 | 1010.8 |
| 20260508084103 | 41 | 262 | 3.0 | 6.0 | 0.00 | 0.11 | 0.00 | 97 | 1010.8 |
| 20260508082603 | 41 | 276 | 2.0 | 3.0 | 0.00 | 0.11 | 0.00 | 97 | 1010.9 |
| 20260508082103 | 40 | 273 | 1.0 | 3.0 | 0.00 | 0.11 | 0.00 | 97 | 1010.9 |
| 20260508080603 | 40 | 278 | 0.0 | 2.0 | 0.00 | 0.11 | 0.00 | 96 | 1010.9 |
| 20260508075603 | 40 | 245 | 0.0 | 1.0 | 0.00 | 0.11 | 0.00 | 96 | 1010.8 |
| 20260508075103 | 40 | 245 | 0.0 | 1.0 | 0.00 | 0.11 | 0.00 | 96 | 1010.8 |
| 20260508074603 | 39 | 245 | 0.0 | 2.0 | 0.00 | 0.11 | 0.00 | 96 | 1010.8 |
| 20260508074103 | 39 | 245 | 0.0 | 3.0 | 0.00 | 0.11 | 0.00 | 96 | 1010.8 |
| 20260508073603 | 39 | 253 | 1.0 | 2.0 | 0.00 | 0.11 | 0.00 | 96 | 1010.8 |
| 20260508073103 | 39 | 253 | 0.0 | 0.0 | 0.00 | 0.11 | 0.00 | 96 | 1010.8 |
| 20260508072603 | 39 | 253 | 0.0 | 0.0 | 0.00 | 0.11 | 0.00 | 96 | 1010.9 |
| 20260508072103 | 39 | 253 | 0.0 | 0.0 | 0.00 | 0.11 | 0.00 | 96 | 1010.9 |
| 20260508071603 | 39 | 253 | 0.0 | 0.0 | 0.00 | 0.11 | 0.00 | 96 | 1010.9 |
| 20260508071103 | 39 | 253 | 0.0 | 0.0 | 0.00 | 0.11 | 0.00 | 96 | 1010.9 |
| 20260508070603 | 39 | 253 | 0.0 | 1.0 | 0.00 | 0.11 | 0.00 | 96 | 1011.0 |
| 20260508065603 | 39 | 253 | 1.0 | 1.0 | 0.00 | 0.11 | 0.00 | 96 | 1011.1 |
| 20260508065103 | 39 | 253 | 0.0 | 2.0 | 0.00 | 0.11 | 0.00 | 96 | 1011.1 |
| 20260508064603 | 39 | 253 | 1.0 | 2.0 | 0.00 | 0.11 | 0.00 | 96 | 1011.0 |
| 20260508064103 | 39 | 253 | 0.0 | 2.0 | 0.00 | 0.11 | 0.00 | 96 | 1011.0 |
| 20260508063603 | 39 | 253 | 1.0 | 2.0 | 0.00 | 0.11 | 0.00 | 96 | 1011.1 |
| 20260508063103 | 38 | 254 | 1.0 | 3.0 | 0.00 | 0.11 | 0.00 | 96 | 1011.1 |
| 20260508062603 | 38 | 265 | 0.0 | 1.0 | 0.00 | 0.11 | 0.00 | 96 | 1011.1 |
| 20260508062103 | 38 | 265 | 1.0 | 2.0 | 0.00 | 0.11 | 0.00 | 96 | 1011.2 |
| 20260508061603 | 38 | 265 | 0.0 | 1.0 | 0.00 | 0.11 | 0.00 | 95 | 1011.2 |
| 20260508060103 | 37 | 272 | 0.0 | 1.0 | 0.00 | 0.11 | 0.00 | 95 | 1011.2 |
| 20260508055603 | 37 | 272 | 0.0 | 2.0 | 0.00 | 0.11 | 0.00 | 95 | 1011.1 |
| 20260508055103 | 38 | 274 | 1.0 | 2.0 | 0.00 | 0.11 | 0.00 | 95 | 1011.1 |
| 20260508054603 | 38 | 274 | 0.0 | 0.0 | 0.00 | 0.11 | 0.00 | 95 | 1011.1 |
| 20260508053604 | 38 | 274 | 0.0 | 0.0 | 0.00 | 0.11 | 0.00 | 95 | 1011.2 |
| 20260508053103 | 38 | 274 | 0.0 | 0.0 | 0.00 | 0.11 | 0.00 | 95 | 1011.3 |
| 20260508052603 | 38 | 274 | 0.0 | 0.0 | 0.00 | 0.12 | 0.00 | 95 | 1011.3 |
| 20260508051603 | 39 | 274 | 1.0 | 2.0 | 0.00 | 0.12 | 0.00 | 94 | 1011.3 |
| 20260508051103 | 39 | 275 | 0.0 | 2.0 | 0.00 | 0.12 | 0.00 | 95 | 1011.4 |
| 20260508050103 | 39 | 277 | 0.0 | 1.0 | 0.00 | 0.12 | 0.00 | 95 | 1011.6 |
| 20260508044603 | 39 | 285 | 1.0 | 2.0 | 0.00 | 0.12 | 0.00 | 94 | 1011.6 |
| 20260508044103 | 40 | 285 | 1.0 | 1.0 | 0.00 | 0.12 | 0.00 | 94 | 1011.5 |
| 20260508043605 | 40 | 285 | 0.0 | 1.0 | 0.00 | 0.12 | 0.00 | 94 | 1011.4 |
| 20260508043103 | 40 | 284 | 1.0 | 2.0 | 0.00 | 0.12 | 0.00 | 95 | 1011.4 |
| 20260508042103 | 41 | 235 | 0.0 | 2.0 | 0.00 | 0.12 | 0.00 | 94 | 1011.5 |
| 20260508041603 | 41 | 235 | 0.0 | 2.0 | 0.00 | 0.12 | 0.00 | 94 | 1011.4 |
| 20260508041103 | 41 | 235 | 1.0 | 3.0 | 0.00 | 0.12 | 0.00 | 95 | 1011.4 |
| 20260508040603 | 41 | 240 | 2.0 | 3.0 | 0.00 | 0.12 | 0.00 | 95 | 1011.4 |
| 20260508035603 | 41 | 255 | 1.0 | 3.0 | 0.00 | 0.12 | 0.12 | 94 | 1011.4 |
| 20260508035103 | 41 | 268 | 1.0 | 3.0 | 0.00 | 0.12 | 0.12 | 94 | 1011.4 |
| 20260508034104 | 40 | 262 | 1.0 | 2.0 | 0.00 | 0.12 | 0.12 | 94 | 1011.4 |
| 20260508033603 | 40 | 262 | 1.0 | 2.0 | 0.00 | 0.12 | 0.12 | 94 | 1011.3 |
| 20260508033103 | 40 | 264 | 1.0 | 3.0 | 0.00 | 0.12 | 0.12 | 94 | 1011.3 |
| 20260508032604 | 40 | 309 | 1.0 | 2.0 | 0.00 | 0.12 | 0.12 | 93 | 1011.3 |
| 20260508032103 | 40 | 311 | 0.0 | 1.0 | 0.00 | 0.12 | 0.12 | 93 | 1011.3 |
| 20260508031603 | 40 | 311 | 0.0 | 0.0 | 0.01 | 0.12 | 0.12 | 93 | 1011.2 |
| 20260508031103 | 40 | 311 | 0.0 | 0.0 | 0.02 | 0.12 | 0.12 | 93 | 1011.2 |
| 20260508030603 | 41 | 311 | 0.0 | 0.0 | 0.02 | 0.12 | 0.12 | 93 | 1011.2 |
| 20260508030103 | 41 | 311 | 0.0 | 0.0 | 0.03 | 0.12 | 0.12 | 93 | 1011.2 |
| 20260508024603 | 42 | 340 | 1.0 | 3.0 | 0.03 | 0.12 | 0.12 | 93 | 1011.3 |
| 20260508024103 | 42 | 340 | 1.0 | 3.0 | 0.04 | 0.12 | 0.12 | 93 | 1011.3 |
| 20260508023603 | 42 | 340 | 1.0 | 2.0 | 0.04 | 0.12 | 0.12 | 93 | 1011.3 |
| 20260508023103 | 42 | 340 | 0.0 | 0.0 | 0.04 | 0.12 | 0.12 | 93 | 1011.2 |
| 20260508022604 | 42 | 340 | 0.0 | 2.0 | 0.04 | 0.12 | 0.12 | 93 | 1011.1 |
| 20260508022103 | 42 | 340 | 1.0 | 3.0 | 0.04 | 0.12 | 0.12 | 93 | 1011.2 |
| 20260508021603 | 43 | 313 | 1.0 | 3.0 | 0.03 | 0.11 | 0.11 | 93 | 1011.1 |
| 20260508021103 | 43 | 306 | 3.0 | 6.0 | 0.02 | 0.10 | 0.10 | 93 | 1011.2 |
| 20260508020603 | 43 | 316 | 3.0 | 7.0 | 0.02 | 0.10 | 0.10 | 93 | 1011.4 |
| 20260508020104 | 43 | 316 | 4.0 | 10.0 | 0.01 | 0.09 | 0.09 | 93 | 1011.4 |
| 20260508015603 | 43 | 329 | 4.0 | 8.0 | 0.01 | 0.09 | 0.09 | 93 | 1011.4 |
| 20260508015104 | 43 | 336 | 6.0 | 12.0 | 0.01 | 0.09 | 0.09 | 92 | 1011.3 |
| 20260508014603 | 43 | 334 | 4.0 | 9.0 | 0.01 | 0.09 | 0.09 | 93 | 1011.2 |
| 20260508014103 | 43 | 298 | 3.0 | 7.0 | 0.00 | 0.08 | 0.08 | 93 | 1011.3 |
| 20260508012603 | 43 | 297 | 1.0 | 3.0 | 0.00 | 0.08 | 0.08 | 92 | 1011.1 |
| 20260508012103 | 43 | 290 | 1.0 | 2.0 | 0.01 | 0.08 | 0.08 | 91 | 1011.1 |
| 20260508011603 | 43 | 291 | 1.0 | 3.0 | 0.01 | 0.08 | 0.08 | 91 | 1011.0 |
| 20260508011103 | 42 | 240 | 0.0 | 1.0 | 0.03 | 0.08 | 0.08 | 90 | 1010.9 |
| 20260508005603 | 42 | 240 | 0.0 | 0.0 | 0.06 | 0.08 | 0.08 | 89 | 1010.7 |
| 20260508005103 | 43 | 240 | 0.0 | 1.0 | 0.07 | 0.08 | 0.08 | 89 | 1010.6 |
| 20260508004603 | 43 | 240 | 0.0 | 0.0 | 0.07 | 0.08 | 0.08 | 89 | 1010.6 |
| 20260508004103 | 43 | 240 | 0.0 | 0.0 | 0.07 | 0.08 | 0.08 | 88 | 1010.6 |
| 20260508003605 | 43 | 240 | 0.0 | 1.0 | 0.07 | 0.08 | 0.08 | 88 | 1010.5 |
| 20260508003104 | 43 | 240 | 1.0 | 2.0 | 0.07 | 0.08 | 0.08 | 87 | 1010.6 |
| 20260508002103 | 44 | 245 | 1.0 | 5.0 | 0.06 | 0.07 | 0.07 | 86 | 1010.6 |
| 20260508001603 | 44 | 286 | 2.0 | 9.0 | 0.06 | 0.07 | 0.07 | 85 | 1010.7 |
| 20260508001103 | 45 | 288 | 5.0 | 12.0 | 0.04 | 0.05 | 0.05 | 84 | 1010.7 |
| 20260508000104 | 46 | 300 | 6.0 | 12.0 | 0.02 | 0.03 | 0.03 | 82 | 1010.6 |
| 20260507235603 | 47 | 307 | 5.0 | 10.0 | 0.01 | 0.02 | 0.02 | 80 | 1010.5 |
| 20260507235103 | 48 | 286 | 4.0 | 10.0 | 0.00 | 0.01 | 0.01 | 78 | 1010.4 |
| 20260507234603 | 48 | 287 | 3.0 | 13.0 | 0.00 | 0.01 | 0.01 | 76 | 1010.2 |
| 20260507234103 | 48 | 273 | 4.0 | 9.0 | 0.00 | 0.01 | 0.01 | 74 | 1010.1 |
| 20260507232603 | 49 | 326 | 3.0 | 8.0 | 0.00 | 0.01 | 0.01 | 69 | 1009.9 |
| 20260507232103 | 49 | 317 | 5.0 | 8.0 | 0.00 | 0.01 | 0.01 | 68 | 1009.8 |
| 20260507231603 | 49 | 321 | 3.0 | 10.0 | 0.00 | 0.01 | 0.01 | 67 | 1009.8 |
| 20260507231104 | 49 | 341 | 4.0 | 7.0 | 0.00 | 0.01 | 0.01 | 67 | 1009.7 |
| 20260507230603 | 50 | 342 | 3.0 | 9.0 | 0.00 | 0.01 | 0.01 | 67 | 1009.7 |
| 20260507230105 | 50 | 294 | 5.0 | 10.0 | 0.00 | 0.01 | 0.01 | 67 | 1009.7 |
| 20260507225603 | 50 | 317 | 4.0 | 9.0 | 0.00 | 0.01 | 0.01 | 66 | 1009.7 |
| 20260507225103 | 51 | 288 | 3.0 | 9.0 | 0.00 | 0.01 | 0.01 | 66 | 1009.7 |
| 20260507224604 | 51 | 299 | 5.0 | 8.0 | 0.00 | 0.01 | 0.01 | 66 | 1009.7 |
| 20260507224103 | 51 | 293 | 4.0 | 8.0 | 0.00 | 0.01 | 0.01 | 65 | 1009.7 |
| 20260507223604 | 51 | 323 | 3.0 | 9.0 | 0.00 | 0.01 | 0.01 | 64 | 1009.6 |
| 20260507223103 | 51 | 309 | 3.0 | 9.0 | 0.00 | 0.01 | 0.01 | 64 | 1009.7 |
| 20260507222603 | 51 | 321 | 4.0 | 10.0 | 0.00 | 0.01 | 0.01 | 65 | 1009.7 |
| 20260507222103 | 51 | 303 | 3.0 | 8.0 | 0.00 | 0.01 | 0.01 | 65 | 1009.7 |
| 20260507221103 | 52 | 289 | 6.0 | 12.0 | 0.00 | 0.01 | 0.01 | 65 | 1009.7 |
| 20260507220604 | 52 | 259 | 3.0 | 8.0 | 0.00 | 0.01 | 0.01 | 64 | 1009.7 |